Year,Month,Day,Hour,Minute,Value (Times are PST for temperature in C)
2018,08,09,00,00,19.60
2018,08,09,00,01,19.50
2018,08,09,00,02,19.50
2018,08,09,00,03,19.50
2018,08,09,00,04,19.50
2018,08,09,00,05,19.40
2018,08,09,00,06,19.40
2018,08,09,00,07,19.40
2018,08,09,00,08,19.40
2018,08,09,00,09,19.40
2018,08,09,00,10,19.40
2018,08,09,00,11,19.30
2018,08,09,00,12,19.30
2018,08,09,00,13,19.30
2018,08,09,00,14,19.30
2018,08,09,00,15,19.30
2018,08,09,00,16,19.30
2018,08,09,00,17,19.30
2018,08,09,00,18,19.30
2018,08,09,00,19,19.30
2018,08,09,00,20,19.20
2018,08,09,00,21,19.20
2018,08,09,00,22,19.20
2018,08,09,00,23,19.20
2018,08,09,00,24,19.20
2018,08,09,00,25,19.20
2018,08,09,00,26,19.20
2018,08,09,00,27,19.20
2018,08,09,00,28,19.20
2018,08,09,00,29,19.20
2018,08,09,00,30,19.20
2018,08,09,00,31,19.20
2018,08,09,00,32,19.10
2018,08,09,00,33,19.10
2018,08,09,00,34,19.10
2018,08,09,00,35,19.10
2018,08,09,00,36,19.10
2018,08,09,00,37,19.10
2018,08,09,00,38,19.10
2018,08,09,00,39,19.10
2018,08,09,00,40,19.10
2018,08,09,00,41,19.10
2018,08,09,00,42,19.10
2018,08,09,00,43,19.10
2018,08,09,00,44,19.10
2018,08,09,00,45,19.10
2018,08,09,00,46,19.10
2018,08,09,00,47,19.10
2018,08,09,00,48,19.10
2018,08,09,00,49,19.10
2018,08,09,00,50,19.10
2018,08,09,00,51,19.10
2018,08,09,00,52,19.10
2018,08,09,00,53,19.20
2018,08,09,00,54,19.20
2018,08,09,00,55,19.20
2018,08,09,00,56,19.20
2018,08,09,00,57,19.20
2018,08,09,00,58,19.20
2018,08,09,00,59,19.20
2018,08,09,01,00,19.20
2018,08,09,01,01,19.20
2018,08,09,01,02,19.20
2018,08,09,01,03,19.10
2018,08,09,01,04,19.10
2018,08,09,01,05,19.10
2018,08,09,01,06,19.10
2018,08,09,01,07,19.00
2018,08,09,01,08,19.00
2018,08,09,01,09,18.90
2018,08,09,01,10,18.90
2018,08,09,01,11,18.90
2018,08,09,01,12,18.90
2018,08,09,01,13,18.80
2018,08,09,01,14,18.80
2018,08,09,01,15,18.80
2018,08,09,01,16,18.80
2018,08,09,01,17,18.70
2018,08,09,01,18,18.70
2018,08,09,01,19,18.70
2018,08,09,01,20,18.70
2018,08,09,01,21,18.60
2018,08,09,01,22,18.60
2018,08,09,01,23,18.60
2018,08,09,01,24,18.50
2018,08,09,01,25,18.40
2018,08,09,01,26,18.40
2018,08,09,01,27,18.40
2018,08,09,01,28,18.30
2018,08,09,01,29,18.30
2018,08,09,01,30,18.30
2018,08,09,01,31,18.30
2018,08,09,01,32,18.30
2018,08,09,01,33,18.20
2018,08,09,01,34,18.20
2018,08,09,01,35,18.20
2018,08,09,01,36,18.20
2018,08,09,01,37,18.20
2018,08,09,01,38,18.20
2018,08,09,01,39,18.10
2018,08,09,01,40,18.10
2018,08,09,01,41,18.10
2018,08,09,01,42,18.10
2018,08,09,01,43,18.10
2018,08,09,01,44,18.00
2018,08,09,01,45,18.00
2018,08,09,01,46,18.00
2018,08,09,01,47,17.90
2018,08,09,01,48,17.90
2018,08,09,01,49,17.90
2018,08,09,01,50,17.90
2018,08,09,01,51,17.90
2018,08,09,01,52,17.80
2018,08,09,01,53,17.80
2018,08,09,01,54,17.80
2018,08,09,01,55,17.80
2018,08,09,01,56,17.70
2018,08,09,01,57,17.70
2018,08,09,01,58,17.70
2018,08,09,01,59,17.70
2018,08,09,02,00,17.60
2018,08,09,02,01,17.60
2018,08,09,02,02,17.60
2018,08,09,02,03,17.60
2018,08,09,02,04,17.60
2018,08,09,02,05,17.50
2018,08,09,02,06,17.50
2018,08,09,02,07,17.50
2018,08,09,02,08,17.50
2018,08,09,02,09,17.50
2018,08,09,02,10,17.50
2018,08,09,02,11,17.40
2018,08,09,02,12,17.40
2018,08,09,02,13,17.40
2018,08,09,02,14,17.40
2018,08,09,02,15,17.40
2018,08,09,02,16,17.40
2018,08,09,02,17,17.40
2018,08,09,02,18,17.30
2018,08,09,02,19,17.30
2018,08,09,02,20,17.30
2018,08,09,02,21,17.30
2018,08,09,02,22,17.20
2018,08,09,02,23,17.20
2018,08,09,02,24,17.20
2018,08,09,02,25,17.20
2018,08,09,02,26,17.20
2018,08,09,02,27,17.10
2018,08,09,02,28,17.10
2018,08,09,02,29,17.10
2018,08,09,02,30,17.10
2018,08,09,02,31,17.00
2018,08,09,02,32,17.00
2018,08,09,02,33,16.90
2018,08,09,02,34,16.90
2018,08,09,02,35,16.90
2018,08,09,02,36,16.80
2018,08,09,02,37,16.80
2018,08,09,02,38,16.80
2018,08,09,02,39,16.80
2018,08,09,02,40,16.70
2018,08,09,02,41,16.70
2018,08,09,02,42,16.70
2018,08,09,02,43,16.70
2018,08,09,02,44,16.60
2018,08,09,02,45,16.60
2018,08,09,02,46,16.60
2018,08,09,02,47,16.60
2018,08,09,02,48,16.50
2018,08,09,02,49,16.50
2018,08,09,02,50,16.50
2018,08,09,02,51,16.40
2018,08,09,02,52,16.40
2018,08,09,02,53,16.40
2018,08,09,02,54,16.40
2018,08,09,02,55,16.40
2018,08,09,02,56,16.30
2018,08,09,02,57,16.30
2018,08,09,02,58,16.30
2018,08,09,02,59,16.30
2018,08,09,03,00,16.30
2018,08,09,03,01,16.30
2018,08,09,03,02,16.30
2018,08,09,03,03,16.30
2018,08,09,03,04,16.30
2018,08,09,03,05,16.30
2018,08,09,03,06,16.30
2018,08,09,03,07,16.30
2018,08,09,03,08,16.20
2018,08,09,03,09,16.20
2018,08,09,03,10,16.20
2018,08,09,03,11,16.20
2018,08,09,03,12,16.20
2018,08,09,03,13,16.20
2018,08,09,03,14,16.20
2018,08,09,03,15,16.20
2018,08,09,03,16,16.20
2018,08,09,03,17,16.20
2018,08,09,03,18,16.20
2018,08,09,03,19,16.10
2018,08,09,03,20,16.10
2018,08,09,03,21,16.10
2018,08,09,03,22,16.10
2018,08,09,03,23,16.10
2018,08,09,03,24,16.10
2018,08,09,03,25,16.10
2018,08,09,03,26,16.10
2018,08,09,03,27,16.10
2018,08,09,03,28,16.10
2018,08,09,03,29,16.10
2018,08,09,03,30,16.10
2018,08,09,03,31,16.00
2018,08,09,03,32,16.00
2018,08,09,03,33,16.00
2018,08,09,03,34,16.00
2018,08,09,03,35,16.00
2018,08,09,03,36,16.00
2018,08,09,03,37,16.00
2018,08,09,03,38,16.00
2018,08,09,03,39,16.00
2018,08,09,03,40,16.00
2018,08,09,03,41,15.90
2018,08,09,03,42,16.00
2018,08,09,03,43,16.00
2018,08,09,03,44,16.00
2018,08,09,03,45,16.00
2018,08,09,03,46,16.00
2018,08,09,03,47,16.00
2018,08,09,03,48,16.00
2018,08,09,03,49,15.90
2018,08,09,03,50,15.90
2018,08,09,03,51,15.90
2018,08,09,03,52,15.90
2018,08,09,03,53,15.90
2018,08,09,03,54,15.90
2018,08,09,03,55,15.90
2018,08,09,03,56,15.90
2018,08,09,03,57,15.90
2018,08,09,03,58,15.90
2018,08,09,03,59,15.80
2018,08,09,04,00,15.80
2018,08,09,04,01,15.80
2018,08,09,04,02,15.80
2018,08,09,04,03,15.80
2018,08,09,04,04,15.80
2018,08,09,04,05,15.80
2018,08,09,04,06,15.80
2018,08,09,04,07,15.80
2018,08,09,04,08,15.80
2018,08,09,04,09,15.80
2018,08,09,04,10,15.80
2018,08,09,04,11,15.80
2018,08,09,04,12,15.80
2018,08,09,04,13,15.80
2018,08,09,04,14,15.80
2018,08,09,04,15,15.80
2018,08,09,04,16,15.80
2018,08,09,04,17,15.80
2018,08,09,04,18,15.80
2018,08,09,04,19,15.80
2018,08,09,04,20,15.80
2018,08,09,04,21,15.80
2018,08,09,04,22,15.80
2018,08,09,04,23,15.80
2018,08,09,04,24,15.80
2018,08,09,04,25,15.80
2018,08,09,04,26,15.80
2018,08,09,04,27,15.80
2018,08,09,04,28,15.80
2018,08,09,04,29,15.90
2018,08,09,04,30,15.90
2018,08,09,04,31,15.90
2018,08,09,04,32,15.90
2018,08,09,04,33,15.90
2018,08,09,04,34,15.90
2018,08,09,04,35,15.90
2018,08,09,04,36,15.90
2018,08,09,04,37,15.90
2018,08,09,04,38,15.90
2018,08,09,04,39,15.90
2018,08,09,04,40,15.90
2018,08,09,04,41,15.80
2018,08,09,04,42,15.80
2018,08,09,04,43,15.80
2018,08,09,04,44,15.80
2018,08,09,04,45,15.80
2018,08,09,04,46,15.80
2018,08,09,04,47,15.80
2018,08,09,04,48,15.80
2018,08,09,04,49,15.80
2018,08,09,04,50,15.80
2018,08,09,04,51,15.80
2018,08,09,04,52,15.80
2018,08,09,04,53,15.90
2018,08,09,04,54,15.90
2018,08,09,04,55,15.90
2018,08,09,04,56,16.00
2018,08,09,04,57,16.00
2018,08,09,04,58,16.10
2018,08,09,04,59,16.10
2018,08,09,05,00,16.10
2018,08,09,05,01,16.00
2018,08,09,05,02,16.00
2018,08,09,05,03,15.90
2018,08,09,05,04,15.90
2018,08,09,05,05,15.80
2018,08,09,05,06,15.80
2018,08,09,05,07,15.70
2018,08,09,05,08,15.60
2018,08,09,05,09,15.50
2018,08,09,05,10,15.50
2018,08,09,05,11,15.40
2018,08,09,05,12,15.30
2018,08,09,05,13,15.30
2018,08,09,05,14,15.20
2018,08,09,05,15,15.20
2018,08,09,05,16,15.20
2018,08,09,05,17,15.10
2018,08,09,05,18,15.10
2018,08,09,05,19,15.10
2018,08,09,05,20,15.00
2018,08,09,05,21,15.00
2018,08,09,05,22,15.00
2018,08,09,05,23,14.90
2018,08,09,05,24,14.90
2018,08,09,05,25,14.90
2018,08,09,05,26,14.90
2018,08,09,05,27,14.90
2018,08,09,05,28,14.90
2018,08,09,05,29,14.80
2018,08,09,05,30,14.80
2018,08,09,05,31,14.80
2018,08,09,05,32,14.80
2018,08,09,05,33,14.80
2018,08,09,05,34,14.80
2018,08,09,05,35,14.80
2018,08,09,05,36,14.80
2018,08,09,05,37,14.70
2018,08,09,05,38,14.70
2018,08,09,05,39,14.70
2018,08,09,05,40,14.60
2018,08,09,05,41,14.60
2018,08,09,05,42,14.60
2018,08,09,05,43,14.60
2018,08,09,05,44,14.50
2018,08,09,05,45,14.50
2018,08,09,05,46,14.50
2018,08,09,05,47,14.40
2018,08,09,05,48,14.40
2018,08,09,05,49,14.40
2018,08,09,05,50,14.40
2018,08,09,05,51,14.40
2018,08,09,05,52,14.40
2018,08,09,05,53,14.40
2018,08,09,05,54,14.40
2018,08,09,05,55,14.40
2018,08,09,05,56,14.30
2018,08,09,05,57,14.30
2018,08,09,05,58,14.30
2018,08,09,05,59,14.30
2018,08,09,06,00,14.30
2018,08,09,06,01,14.30
2018,08,09,06,02,14.30
2018,08,09,06,03,14.30
2018,08,09,06,04,14.30
2018,08,09,06,05,14.30
2018,08,09,06,06,14.30
2018,08,09,06,07,14.30
2018,08,09,06,08,14.30
2018,08,09,06,09,14.30
2018,08,09,06,10,14.30
2018,08,09,06,11,14.30
2018,08,09,06,12,14.30
2018,08,09,06,13,14.30
2018,08,09,06,14,14.30
2018,08,09,06,15,14.30
2018,08,09,06,16,14.30
2018,08,09,06,17,14.30
2018,08,09,06,18,14.30
2018,08,09,06,19,14.30
2018,08,09,06,20,14.30
2018,08,09,06,21,14.30
2018,08,09,06,22,14.30
2018,08,09,06,23,14.30
2018,08,09,06,24,14.30
2018,08,09,06,25,14.30
2018,08,09,06,26,14.30
2018,08,09,06,27,14.30
2018,08,09,06,28,14.30
2018,08,09,06,29,14.30
2018,08,09,06,30,14.30
2018,08,09,06,31,14.30
2018,08,09,06,32,14.30
2018,08,09,06,33,14.30
2018,08,09,06,34,14.30
2018,08,09,06,35,14.30
2018,08,09,06,36,14.30
2018,08,09,06,37,14.30
2018,08,09,06,38,14.30
2018,08,09,06,39,14.30
2018,08,09,06,40,14.30
2018,08,09,06,41,14.30
2018,08,09,06,42,14.30
2018,08,09,06,43,14.30
2018,08,09,06,44,14.30
2018,08,09,06,45,14.30
2018,08,09,06,46,14.40
2018,08,09,06,47,14.40
2018,08,09,06,48,14.40
2018,08,09,06,49,14.40
2018,08,09,06,50,14.50
2018,08,09,06,51,14.50
2018,08,09,06,52,14.60
2018,08,09,06,53,14.60
2018,08,09,06,54,14.60
2018,08,09,06,55,14.70
2018,08,09,06,56,14.70
2018,08,09,06,57,14.80
2018,08,09,06,58,14.80
2018,08,09,06,59,14.80
2018,08,09,07,00,14.90
2018,08,09,07,01,14.90
2018,08,09,07,02,15.00
2018,08,09,07,03,15.10
2018,08,09,07,04,15.10
2018,08,09,07,05,15.20
2018,08,09,07,06,15.20
2018,08,09,07,07,15.30
2018,08,09,07,08,15.40
2018,08,09,07,09,15.50
2018,08,09,07,10,15.50
2018,08,09,07,11,15.60
2018,08,09,07,12,15.70
2018,08,09,07,13,15.70
2018,08,09,07,14,15.80
2018,08,09,07,15,15.80
2018,08,09,07,16,15.90
2018,08,09,07,17,16.10
2018,08,09,07,18,16.20
2018,08,09,07,19,16.30
2018,08,09,07,20,16.50
2018,08,09,07,21,16.60
2018,08,09,07,22,16.70
2018,08,09,07,23,16.70
2018,08,09,07,24,16.80
2018,08,09,07,25,16.90
2018,08,09,07,26,17.10
2018,08,09,07,27,17.20
2018,08,09,07,28,17.30
2018,08,09,07,29,17.40
2018,08,09,07,30,17.40
2018,08,09,07,31,17.40
2018,08,09,07,32,17.40
2018,08,09,07,33,17.30
2018,08,09,07,34,17.40
2018,08,09,07,35,17.40
2018,08,09,07,36,17.40
2018,08,09,07,37,17.40
2018,08,09,07,38,17.40
2018,08,09,07,39,17.40
2018,08,09,07,40,17.40
2018,08,09,07,41,17.40
2018,08,09,07,42,17.50
2018,08,09,07,43,17.50
2018,08,09,07,44,17.50
2018,08,09,07,45,17.50
2018,08,09,07,46,17.60
2018,08,09,07,47,17.60
2018,08,09,07,48,17.60
2018,08,09,07,49,17.70
2018,08,09,07,50,17.70
2018,08,09,07,51,17.80
2018,08,09,07,52,17.90
2018,08,09,07,53,17.90
2018,08,09,07,54,18.00
2018,08,09,07,55,18.10
2018,08,09,07,56,18.20
2018,08,09,07,57,18.30
2018,08,09,07,58,18.40
2018,08,09,07,59,18.50
2018,08,09,08,00,18.60
2018,08,09,08,01,18.60
2018,08,09,08,02,18.60
2018,08,09,08,03,18.70
2018,08,09,08,04,18.70
2018,08,09,08,05,18.80
2018,08,09,08,06,18.80
2018,08,09,08,07,18.90
2018,08,09,08,08,19.00
2018,08,09,08,09,19.00
2018,08,09,08,10,19.10
2018,08,09,08,11,19.20
2018,08,09,08,12,19.30
2018,08,09,08,13,19.30
2018,08,09,08,14,19.50
2018,08,09,08,15,19.60
2018,08,09,08,16,19.70
2018,08,09,08,17,19.70
2018,08,09,08,18,19.80
2018,08,09,08,19,19.90
2018,08,09,08,20,19.90
2018,08,09,08,21,20.10
2018,08,09,08,22,20.20
2018,08,09,08,23,20.30
2018,08,09,08,24,20.30
2018,08,09,08,25,20.40
2018,08,09,08,26,20.50
2018,08,09,08,27,20.50
2018,08,09,08,28,20.60
2018,08,09,08,29,20.60
2018,08,09,08,30,20.60
2018,08,09,08,31,20.60
2018,08,09,08,32,20.60
2018,08,09,08,33,20.60
2018,08,09,08,34,20.60
2018,08,09,08,35,20.60
2018,08,09,08,36,20.60
2018,08,09,08,37,20.60
2018,08,09,08,38,20.60
2018,08,09,08,39,20.60
2018,08,09,08,40,20.60
2018,08,09,08,41,20.60
2018,08,09,08,42,20.60
2018,08,09,08,43,20.60
2018,08,09,08,44,20.60
2018,08,09,08,45,20.60
2018,08,09,08,46,20.60
2018,08,09,08,47,20.70
2018,08,09,08,48,20.70
2018,08,09,08,49,20.80
2018,08,09,08,50,20.80
2018,08,09,08,51,20.90
2018,08,09,08,52,20.90
2018,08,09,08,53,20.90
2018,08,09,08,54,21.00
2018,08,09,08,55,21.10
2018,08,09,08,56,21.20
2018,08,09,08,57,21.20
2018,08,09,08,58,21.30
2018,08,09,08,59,21.40
2018,08,09,09,00,21.40
2018,08,09,09,01,21.50
2018,08,09,09,02,21.50
2018,08,09,09,03,21.60
2018,08,09,09,04,21.60
2018,08,09,09,05,21.60
2018,08,09,09,06,21.60
2018,08,09,09,07,21.60
2018,08,09,09,08,21.60
2018,08,09,09,09,21.60
2018,08,09,09,10,21.60
2018,08,09,09,11,21.60
2018,08,09,09,12,21.60
2018,08,09,09,13,21.60
2018,08,09,09,14,21.70
2018,08,09,09,15,21.70
2018,08,09,09,16,21.70
2018,08,09,09,17,21.70
2018,08,09,09,18,21.70
2018,08,09,09,19,21.80
2018,08,09,09,20,21.80
2018,08,09,09,21,21.90
2018,08,09,09,22,21.90
2018,08,09,09,23,22.00
2018,08,09,09,24,22.00
2018,08,09,09,25,22.10
2018,08,09,09,26,22.10
2018,08,09,09,27,22.20
2018,08,09,09,28,22.40
2018,08,09,09,29,22.50
2018,08,09,09,30,22.60
2018,08,09,09,31,22.70
2018,08,09,09,32,22.80
2018,08,09,09,33,22.90
2018,08,09,09,34,23.00
2018,08,09,09,35,23.10
2018,08,09,09,36,23.20
2018,08,09,09,37,23.30
2018,08,09,09,38,23.40
2018,08,09,09,39,23.40
2018,08,09,09,40,23.50
2018,08,09,09,41,23.60
2018,08,09,09,42,23.60
2018,08,09,09,43,23.70
2018,08,09,09,44,23.70
2018,08,09,09,45,23.80
2018,08,09,09,46,23.90
2018,08,09,09,47,24.00
2018,08,09,09,48,24.10
2018,08,09,09,49,24.20
2018,08,09,09,50,24.30
2018,08,09,09,51,24.30
2018,08,09,09,52,24.20
2018,08,09,09,53,24.10
2018,08,09,09,54,24.00
2018,08,09,09,55,23.90
2018,08,09,09,56,23.90
2018,08,09,09,57,23.80
2018,08,09,09,58,23.70
2018,08,09,09,59,23.60
2018,08,09,10,00,23.50
2018,08,09,10,01,23.30
2018,08,09,10,02,23.00
2018,08,09,10,03,22.90
2018,08,09,10,04,22.80
2018,08,09,10,05,22.70
2018,08,09,10,06,22.60
2018,08,09,10,07,22.60
2018,08,09,10,08,22.60
2018,08,09,10,09,22.60
2018,08,09,10,10,22.60
2018,08,09,10,11,22.60
2018,08,09,10,12,22.80
2018,08,09,10,13,22.80
2018,08,09,10,14,22.80
2018,08,09,10,15,22.80
2018,08,09,10,16,22.90
2018,08,09,10,17,23.00
2018,08,09,10,18,23.10
2018,08,09,10,19,23.10
2018,08,09,10,20,23.10
2018,08,09,10,21,23.00
2018,08,09,10,22,23.00
2018,08,09,10,23,23.10
2018,08,09,10,24,23.20
2018,08,09,10,25,23.20
2018,08,09,10,26,23.30
2018,08,09,10,27,23.20
2018,08,09,10,28,23.20
2018,08,09,10,29,23.10
2018,08,09,10,30,22.90
2018,08,09,10,31,22.80
2018,08,09,10,32,22.70
2018,08,09,10,33,22.50
2018,08,09,10,34,22.30
2018,08,09,10,35,22.20
2018,08,09,10,36,22.10
2018,08,09,10,37,22.00
2018,08,09,10,38,21.90
2018,08,09,10,39,21.90
2018,08,09,10,40,21.80
2018,08,09,10,41,21.80
2018,08,09,10,42,21.70
2018,08,09,10,43,21.60
2018,08,09,10,44,21.60
2018,08,09,10,45,21.50
2018,08,09,10,46,21.40
2018,08,09,10,47,21.50
2018,08,09,10,48,21.50
2018,08,09,10,49,21.60
2018,08,09,10,50,21.70
2018,08,09,10,51,21.80
2018,08,09,10,52,21.90
2018,08,09,10,53,22.00
2018,08,09,10,54,22.10
2018,08,09,10,55,22.10
2018,08,09,10,56,22.10
2018,08,09,10,57,22.20
2018,08,09,10,58,22.20
2018,08,09,10,59,22.10
2018,08,09,11,00,22.10
2018,08,09,11,01,22.00
2018,08,09,11,02,21.90
2018,08,09,11,03,21.90
2018,08,09,11,04,21.90
2018,08,09,11,05,21.90
2018,08,09,11,06,21.90
2018,08,09,11,07,22.00
2018,08,09,11,08,22.00
2018,08,09,11,09,22.10
2018,08,09,11,10,22.20
2018,08,09,11,11,22.30
2018,08,09,11,12,22.40
2018,08,09,11,13,22.50
2018,08,09,11,14,22.60
2018,08,09,11,15,22.60
2018,08,09,11,16,22.70
2018,08,09,11,17,22.80
2018,08,09,11,18,22.90
2018,08,09,11,19,23.00
2018,08,09,11,20,23.10
2018,08,09,11,21,23.20
2018,08,09,11,22,23.30
2018,08,09,11,23,23.50
2018,08,09,11,24,23.60
2018,08,09,11,25,23.70
2018,08,09,11,26,23.80
2018,08,09,11,27,23.90
2018,08,09,11,28,24.00
2018,08,09,11,29,24.10
2018,08,09,11,30,24.20
2018,08,09,11,31,24.30
2018,08,09,11,32,24.40
2018,08,09,11,33,24.50
2018,08,09,11,34,24.60
2018,08,09,11,35,24.60
2018,08,09,11,36,24.70
2018,08,09,11,37,24.70
2018,08,09,11,38,24.70
2018,08,09,11,39,24.80
2018,08,09,11,40,24.90
2018,08,09,11,41,24.90
2018,08,09,11,42,24.90
2018,08,09,11,43,25.00
2018,08,09,11,44,25.00
2018,08,09,11,45,25.00
2018,08,09,11,46,25.10
2018,08,09,11,47,25.10
2018,08,09,11,48,25.10
2018,08,09,11,49,25.10
2018,08,09,11,50,25.20
2018,08,09,11,51,25.30
2018,08,09,11,52,25.30
2018,08,09,11,53,25.30
2018,08,09,11,54,25.20
2018,08,09,11,55,25.20
2018,08,09,11,56,25.30
2018,08,09,11,57,25.30
2018,08,09,11,58,25.20
2018,08,09,11,59,25.10
2018,08,09,12,00,25.10
2018,08,09,12,01,25.10
2018,08,09,12,02,25.20
2018,08,09,12,03,25.20
2018,08,09,12,04,25.30
2018,08,09,12,05,25.30
2018,08,09,12,06,25.30
2018,08,09,12,07,25.40
2018,08,09,12,08,25.40
2018,08,09,12,09,25.40
2018,08,09,12,10,25.50
2018,08,09,12,11,25.60
2018,08,09,12,12,25.60
2018,08,09,12,13,25.60
2018,08,09,12,14,25.60
2018,08,09,12,15,25.60
2018,08,09,12,16,25.60
2018,08,09,12,17,25.60
2018,08,09,12,18,25.60
2018,08,09,12,19,25.60
2018,08,09,12,20,25.60
2018,08,09,12,21,25.60
2018,08,09,12,22,25.70
2018,08,09,12,23,25.70
2018,08,09,12,24,25.80
2018,08,09,12,25,25.80
2018,08,09,12,26,25.90
2018,08,09,12,27,25.90
2018,08,09,12,28,25.90
2018,08,09,12,29,25.70
2018,08,09,12,30,25.60
2018,08,09,12,31,25.60
2018,08,09,12,32,25.70
2018,08,09,12,33,25.70
2018,08,09,12,34,25.70
2018,08,09,12,35,25.70
2018,08,09,12,36,25.70
2018,08,09,12,37,25.80
2018,08,09,12,38,25.80
2018,08,09,12,39,25.80
2018,08,09,12,40,25.80
2018,08,09,12,41,25.80
2018,08,09,12,42,25.80
2018,08,09,12,43,25.80
2018,08,09,12,44,25.80
2018,08,09,12,45,25.90
2018,08,09,12,46,25.90
2018,08,09,12,47,26.00
2018,08,09,12,48,26.00
2018,08,09,12,49,26.10
2018,08,09,12,50,26.10
2018,08,09,12,51,26.10
2018,08,09,12,52,26.20
2018,08,09,12,53,26.30
2018,08,09,12,54,26.40
2018,08,09,12,55,26.60
2018,08,09,12,56,26.70
2018,08,09,12,57,26.80
2018,08,09,12,58,26.90
2018,08,09,12,59,27.00
2018,08,09,13,00,27.00
2018,08,09,13,01,27.10
2018,08,09,13,02,27.20
2018,08,09,13,03,27.20
2018,08,09,13,04,27.20
2018,08,09,13,05,27.20
2018,08,09,13,06,27.10
2018,08,09,13,07,27.00
2018,08,09,13,08,26.90
2018,08,09,13,09,26.90
2018,08,09,13,10,26.90
2018,08,09,13,11,26.90
2018,08,09,13,12,26.90
2018,08,09,13,13,26.90
2018,08,09,13,14,26.90
2018,08,09,13,15,27.00
2018,08,09,13,16,27.10
2018,08,09,13,17,27.10
2018,08,09,13,18,27.00
2018,08,09,13,19,26.90
2018,08,09,13,20,27.00
2018,08,09,13,21,27.10
2018,08,09,13,22,27.10
2018,08,09,13,23,27.20
2018,08,09,13,24,27.10
2018,08,09,13,25,27.00
2018,08,09,13,26,27.00
2018,08,09,13,27,27.00
2018,08,09,13,28,27.00
2018,08,09,13,29,27.00
2018,08,09,13,30,26.90
2018,08,09,13,31,26.90
2018,08,09,13,32,26.90
2018,08,09,13,33,26.90
2018,08,09,13,34,26.90
2018,08,09,13,35,27.00
2018,08,09,13,36,27.00
2018,08,09,13,37,27.10
2018,08,09,13,38,27.20
2018,08,09,13,39,27.30
2018,08,09,13,40,27.40
2018,08,09,13,41,27.40
2018,08,09,13,42,27.40
2018,08,09,13,43,27.40
2018,08,09,13,44,27.40
2018,08,09,13,45,27.20
2018,08,09,13,46,27.00
2018,08,09,13,47,26.90
2018,08,09,13,48,26.80
2018,08,09,13,49,26.80
2018,08,09,13,50,26.70
2018,08,09,13,51,26.70
2018,08,09,13,52,26.60
2018,08,09,13,53,26.60
2018,08,09,13,54,26.50
2018,08,09,13,55,26.40
2018,08,09,13,56,26.50
2018,08,09,13,57,26.60
2018,08,09,13,58,26.70
2018,08,09,13,59,26.70
2018,08,09,14,00,26.70
2018,08,09,14,01,26.80
2018,08,09,14,02,26.80
2018,08,09,14,03,26.80
2018,08,09,14,04,26.80
2018,08,09,14,05,26.90
2018,08,09,14,06,26.90
2018,08,09,14,07,26.90
2018,08,09,14,08,26.90
2018,08,09,14,09,27.00
2018,08,09,14,10,27.00
2018,08,09,14,11,27.10
2018,08,09,14,12,27.10
2018,08,09,14,13,27.00
2018,08,09,14,14,27.10
2018,08,09,14,15,27.10
2018,08,09,14,16,27.20
2018,08,09,14,17,27.20
2018,08,09,14,18,27.20
2018,08,09,14,19,27.20
2018,08,09,14,20,27.20
2018,08,09,14,21,27.20
2018,08,09,14,22,27.30
2018,08,09,14,23,27.40
2018,08,09,14,24,27.50
2018,08,09,14,25,27.60
2018,08,09,14,26,27.60
2018,08,09,14,27,27.70
2018,08,09,14,28,27.80
2018,08,09,14,29,27.80
2018,08,09,14,30,27.80
2018,08,09,14,31,27.70
2018,08,09,14,32,27.70
2018,08,09,14,33,27.70
2018,08,09,14,34,27.70
2018,08,09,14,35,27.70
2018,08,09,14,36,27.70
2018,08,09,14,37,27.80
2018,08,09,14,38,27.80
2018,08,09,14,39,27.90
2018,08,09,14,40,27.90
2018,08,09,14,41,27.90
2018,08,09,14,42,27.90
2018,08,09,14,43,27.80
2018,08,09,14,44,27.80
2018,08,09,14,45,27.70
2018,08,09,14,46,27.60
2018,08,09,14,47,27.50
2018,08,09,14,48,27.40
2018,08,09,14,49,27.40
2018,08,09,14,50,27.50
2018,08,09,14,51,27.60
2018,08,09,14,52,27.60
2018,08,09,14,53,27.70
2018,08,09,14,54,27.80
2018,08,09,14,55,27.90
2018,08,09,14,56,28.00
2018,08,09,14,57,28.10
2018,08,09,14,58,28.20
2018,08,09,14,59,28.30
2018,08,09,15,00,28.30
2018,08,09,15,01,28.30
2018,08,09,15,02,28.20
2018,08,09,15,03,28.20
2018,08,09,15,04,28.10
2018,08,09,15,05,28.10
2018,08,09,15,06,28.20
2018,08,09,15,07,28.30
2018,08,09,15,08,28.40
2018,08,09,15,09,28.50
2018,08,09,15,10,28.70
2018,08,09,15,11,28.70
2018,08,09,15,12,28.80
2018,08,09,15,13,28.80
2018,08,09,15,14,28.80
2018,08,09,15,15,28.80
2018,08,09,15,16,28.80
2018,08,09,15,17,28.80
2018,08,09,15,18,28.80
2018,08,09,15,19,28.80
2018,08,09,15,20,28.70
2018,08,09,15,21,28.60
2018,08,09,15,22,28.40
2018,08,09,15,23,28.30
2018,08,09,15,24,28.30
2018,08,09,15,25,28.40
2018,08,09,15,26,28.40
2018,08,09,15,27,28.50
2018,08,09,15,28,28.60
2018,08,09,15,29,28.70
2018,08,09,15,30,28.80
2018,08,09,15,31,28.90
2018,08,09,15,32,28.90
2018,08,09,15,33,28.90
2018,08,09,15,34,28.90
2018,08,09,15,35,29.00
2018,08,09,15,36,29.00
2018,08,09,15,37,29.10
2018,08,09,15,38,29.10
2018,08,09,15,39,29.10
2018,08,09,15,40,29.10
2018,08,09,15,41,29.10
2018,08,09,15,42,29.20
2018,08,09,15,43,29.20
2018,08,09,15,44,29.30
2018,08,09,15,45,29.30
2018,08,09,15,46,29.20
2018,08,09,15,47,29.20
2018,08,09,15,48,29.20
2018,08,09,15,49,29.20
2018,08,09,15,50,29.20
2018,08,09,15,51,29.10
2018,08,09,15,52,29.20
2018,08,09,15,53,29.20
2018,08,09,15,54,29.30
2018,08,09,15,55,29.40
2018,08,09,15,56,29.40
2018,08,09,15,57,29.40
2018,08,09,15,58,29.40
2018,08,09,15,59,29.30
2018,08,09,16,00,29.20
2018,08,09,16,01,29.20
2018,08,09,16,02,29.10
2018,08,09,16,03,29.00
2018,08,09,16,04,28.90
2018,08,09,16,05,28.90
2018,08,09,16,06,29.00
2018,08,09,16,07,28.90
2018,08,09,16,08,29.00
2018,08,09,16,09,29.00
2018,08,09,16,10,29.10
2018,08,09,16,11,29.20
2018,08,09,16,12,29.10
2018,08,09,16,13,29.10
2018,08,09,16,14,29.10
2018,08,09,16,15,29.10
2018,08,09,16,16,29.00
2018,08,09,16,17,28.90
2018,08,09,16,18,28.90
2018,08,09,16,19,28.90
2018,08,09,16,20,29.00
2018,08,09,16,21,29.00
2018,08,09,16,22,29.10
2018,08,09,16,23,29.10
2018,08,09,16,24,29.10
2018,08,09,16,25,29.10
2018,08,09,16,26,29.10
2018,08,09,16,27,29.10
2018,08,09,16,28,29.10
2018,08,09,16,29,29.10
2018,08,09,16,30,29.10
2018,08,09,16,31,29.10
2018,08,09,16,32,29.10
2018,08,09,16,33,29.10
2018,08,09,16,34,29.10
2018,08,09,16,35,29.20
2018,08,09,16,36,29.20
2018,08,09,16,37,29.20
2018,08,09,16,38,29.20
2018,08,09,16,39,29.20
2018,08,09,16,40,29.30
2018,08,09,16,41,29.30
2018,08,09,16,42,29.30
2018,08,09,16,43,29.40
2018,08,09,16,44,29.40
2018,08,09,16,45,29.40
2018,08,09,16,46,29.40
2018,08,09,16,47,29.40
2018,08,09,16,48,29.30
2018,08,09,16,49,29.20
2018,08,09,16,50,29.10
2018,08,09,16,51,29.00
2018,08,09,16,52,28.80
2018,08,09,16,53,28.60
2018,08,09,16,54,28.50
2018,08,09,16,55,28.40
2018,08,09,16,56,28.30
2018,08,09,16,57,28.30
2018,08,09,16,58,28.20
2018,08,09,16,59,28.20
2018,08,09,17,00,28.20
2018,08,09,17,01,28.20
2018,08,09,17,02,28.30
2018,08,09,17,03,28.30
2018,08,09,17,04,28.20
2018,08,09,17,05,28.10
2018,08,09,17,06,28.00
2018,08,09,17,07,28.00
2018,08,09,17,08,28.00
2018,08,09,17,09,28.10
2018,08,09,17,10,28.10
2018,08,09,17,11,28.20
2018,08,09,17,12,28.20
2018,08,09,17,13,28.30
2018,08,09,17,14,28.40
2018,08,09,17,15,28.50
2018,08,09,17,16,28.50
2018,08,09,17,17,28.50
2018,08,09,17,18,28.50
2018,08,09,17,19,28.60